Weather History for Starkville, MS

Change the Weather History Date:

Saturday, March 29, 2014

  Actual Average Record
Temperature  
Mean Temperature 52 °F -  
Max Temperature 59 °F 72 °F 78 °F (2012)
Min Temperature 42 °F 49 °F 37 °F (2013)
Degree Days  
Heating Degree Days 14    
Growing Degree Days 2 (Base 50)    
Moisture  
Dew Point 48 °F    
Average Humidity 81    
Maximum Humidity 100    
Minimum Humidity 51    
Precipitation  
Precipitation 0.95 in - - ()
Sea Level Pressure  
Sea Level Pressure 30.02 in    
Wind  
Wind Speed 7 mph (NNW)    
Max Wind Speed 15 mph    
Max Gust Speed 28 mph    
Visibility 9 miles    
Events Rain , Thunderstorm    
Averages and records for this station are not official NWS values.
T = Trace of Precipitation, MM = Missing Value Source: NWS Daily Summary

Daily Weather History Graph

Daily Weather History Graph

Search for Another Location

Airport:

Trip Planner

Search our weather history database for the weather conditions in past years. The results will help you decide how hot, cold, wet, or windy it might be!

Date:

Astronomy

Mar. 29, 2014 Rise Set
Actual Time 6:47 AM CDT 7:13 PM CDT
Civil Twilight 6:22 AM CDT 7:38 PM CDT
Nautical Twilight 5:52 AM CDT 8:07 PM CDT
Astronomical Twilight 5:23 AM CDT 8:37 PM CDT
Moon 5:52 AM CDT (3/29) 6:20 PM CDT (3/29)
Length of Visible Light 13h 16m
Length of Day
12h 26m
Waning Crescent, 2% of the Moon is Illuminated
Mar 29
Waning Crescent
Mar 30
New
Apr 7
First Quarter
Apr 15
Full
Apr 22
Last Quarter

Hourly Weather History & Observations

Time (CDT) Temp. Windchill Dew Point Humidity Pressure Visibility Wind Dir Wind Speed Gust Speed Precip Events Conditions
12:15 AM 59.0 °F - 53.6 °F 82% 29.87 in 10.0 mi East 10.4 mph - N/A Thunderstorm Scattered Clouds
12:35 AM 59.0 °F - 53.6 °F 82% 29.84 in 10.0 mi East 9.2 mph - N/A Rain , Thunderstorm Light Thunderstorms and Rain
12:55 AM 57.2 °F - 55.4 °F 94% 29.86 in 10.0 mi Calm Calm - 0.01 in Rain , Thunderstorm Thunderstorms and Rain
1:15 AM 57.2 °F - 55.4 °F 94% 29.94 in 4.0 mi Calm Calm - 0.13 in Rain , Thunderstorm Heavy Thunderstorms and Rain
1:35 AM 57.2 °F - 55.4 °F 94% 29.94 in 3.0 mi Calm Calm - 0.38 in Rain , Thunderstorm Heavy Thunderstorms and Rain
1:55 AM 55.4 °F - 55.4 °F 100% 29.89 in 5.0 mi East 4.6 mph - 0.47 in Rain , Thunderstorm Heavy Thunderstorms and Rain
2:15 AM 55.4 °F - 55.4 °F 100% 29.84 in 5.0 mi East 8.1 mph - 0.10 in Rain Heavy Rain
2:35 AM 55.4 °F - 55.4 °F 100% 29.81 in 10.0 mi East 9.2 mph - 0.13 in Rain Light Rain
2:55 AM 55.4 °F - 55.4 °F 100% 29.79 in 10.0 mi East 6.9 mph - 0.14 in Rain Light Rain
3:15 AM 55.4 °F - 55.4 °F 100% 29.79 in 10.0 mi East 4.6 mph - N/A   Overcast
3:35 AM 55.4 °F - 55.4 °F 100% 29.80 in 5.0 mi Calm Calm - 0.01 in   Heavy Drizzle
3:55 AM 55.4 °F - 55.4 °F 100% 29.79 in 3.0 mi Calm Calm - 0.02 in Rain Heavy Rain
4:15 AM 55.4 °F - 55.4 °F 100% 29.80 in 3.0 mi Calm Calm - 0.06 in Rain Heavy Rain
4:35 AM 55.4 °F - 55.4 °F 100% 29.81 in 3.0 mi Calm Calm - 0.15 in Rain Rain
4:55 AM 55.4 °F - 55.4 °F 100% 29.82 in 4.0 mi NNW 4.6 mph - 0.23 in Rain Rain
5:15 AM 55.4 °F - 55.4 °F 100% 29.82 in 4.0 mi North 3.5 mph - 0.05 in Rain Rain
5:35 AM 55.4 °F - 55.4 °F 100% 29.82 in 10.0 mi NNW 5.8 mph - 0.06 in Rain Light Rain
5:55 AM 55.4 °F - 55.4 °F 100% 29.84 in 10.0 mi Calm Calm - 0.07 in   Overcast
6:15 AM 55.4 °F - 55.4 °F 100% 29.86 in 10.0 mi WNW 3.5 mph - N/A   Overcast
6:35 AM 55.4 °F - 55.4 °F 100% 29.86 in 7.0 mi Calm Calm - N/A Rain Rain
6:55 AM 55.4 °F - 55.4 °F 100% 29.89 in 10.0 mi West 4.6 mph - N/A   Overcast
7:15 AM 55.4 °F - 55.4 °F 100% 29.90 in 10.0 mi West 4.6 mph - 0.01 in   Overcast
7:35 AM 57.2 °F - 55.4 °F 94% 29.90 in 10.0 mi WNW 6.9 mph - 0.01 in   Overcast
7:55 AM 57.2 °F - 55.4 °F 94% 29.91 in 10.0 mi WNW 4.6 mph - 0.01 in   Overcast
8:15 AM 59.0 °F - 55.4 °F 88% 29.92 in 10.0 mi WNW 4.6 mph - N/A   Overcast
8:35 AM 59.0 °F - 55.4 °F 88% 29.93 in 5.0 mi West 13.8 mph 19.6 mph N/A Rain Rain
8:55 AM 53.6 °F - 51.8 °F 94% 29.96 in 3.0 mi WNW 11.5 mph 27.6 mph N/A   Light Drizzle
9:15 AM 53.6 °F - 51.8 °F 94% 29.97 in 10.0 mi NW 10.4 mph 17.3 mph N/A   Overcast
9:35 AM 51.8 °F - 50.0 °F 94% 29.98 in 10.0 mi WNW 12.7 mph 19.6 mph N/A   Overcast
9:55 AM 51.8 °F - 50.0 °F 94% 29.99 in 10.0 mi NW 9.2 mph 21.9 mph N/A   Overcast
10:15 AM 53.6 °F - 50.0 °F 88% 30.01 in 10.0 mi NNW 13.8 mph 23.0 mph N/A   Overcast
10:35 AM 53.6 °F - 50.0 °F 88% 30.02 in 10.0 mi NNW 11.5 mph 21.9 mph N/A   Overcast
10:55 AM 53.6 °F - 48.2 °F 82% 30.03 in 10.0 mi NW 10.4 mph 21.9 mph N/A   Overcast
11:15 AM 53.6 °F - 48.2 °F 82% 30.04 in 10.0 mi NNW 9.2 mph 16.1 mph N/A   Overcast
11:35 AM 53.6 °F - 46.4 °F 77% 30.05 in 10.0 mi NW 10.4 mph 19.6 mph N/A   Overcast
11:55 AM 53.6 °F - 46.4 °F 77% 30.06 in 10.0 mi NW 9.2 mph 19.6 mph N/A   Overcast
12:15 PM 55.4 °F - 46.4 °F 72% 30.07 in 10.0 mi NW 11.5 mph 21.9 mph N/A   Mostly Cloudy
12:35 PM 57.2 °F - 46.4 °F 67% 30.06 in 10.0 mi NNW 9.2 mph 23.0 mph N/A   Scattered Clouds
12:55 PM 57.2 °F - 46.4 °F 67% 30.07 in 10.0 mi WNW 12.7 mph 20.7 mph N/A   Scattered Clouds
1:15 PM 57.2 °F - 44.6 °F 63% 30.07 in 10.0 mi NNW 12.7 mph 25.3 mph N/A   Mostly Cloudy
1:35 PM 59.0 °F - 46.4 °F 63% 30.07 in 10.0 mi NW 15.0 mph 20.7 mph N/A   Mostly Cloudy
1:55 PM 57.2 °F - 44.6 °F 63% 30.09 in 10.0 mi NW 15.0 mph 23.0 mph N/A   Mostly Cloudy
2:15 PM 57.2 °F - 44.6 °F 63% 30.09 in 10.0 mi NW 15.0 mph 23.0 mph N/A   Mostly Cloudy
2:35 PM 57.2 °F - 44.6 °F 63% 30.09 in 10.0 mi NW 10.4 mph 19.6 mph N/A   Mostly Cloudy
2:55 PM 57.2 °F - 44.6 °F 63% 30.09 in 10.0 mi NNW 11.5 mph 18.4 mph N/A   Mostly Cloudy
3:15 PM 57.2 °F - 44.6 °F 63% 30.10 in 10.0 mi NW 11.5 mph 16.1 mph N/A   Scattered Clouds
3:35 PM 57.2 °F - 42.8 °F 59% 30.10 in 10.0 mi NW 6.9 mph 16.1 mph N/A   Scattered Clouds
3:55 PM 59.0 °F - 42.8 °F 55% 30.10 in 10.0 mi WNW 6.9 mph - N/A   Mostly Cloudy
4:15 PM 59.0 °F - 42.8 °F 55% 30.10 in 10.0 mi NW 10.4 mph 16.1 mph N/A   Scattered Clouds
4:35 PM 59.0 °F - 42.8 °F 55% 30.10 in 10.0 mi NW 6.9 mph 17.3 mph N/A   Scattered Clouds
4:55 PM 59.0 °F - 42.8 °F 55% 30.10 in 10.0 mi NNW 9.2 mph - N/A   Clear
5:15 PM 59.0 °F - 42.8 °F 55% 30.11 in 10.0 mi NW 9.2 mph 19.6 mph N/A   Scattered Clouds
5:35 PM 59.0 °F - 41.0 °F 51% 30.12 in 10.0 mi NW 8.1 mph 17.3 mph N/A   Mostly Cloudy
5:55 PM 55.4 °F - 42.8 °F 63% 30.13 in 10.0 mi NNW 10.4 mph 16.1 mph N/A   Mostly Cloudy
6:15 PM 55.4 °F - 42.8 °F 63% 30.14 in 10.0 mi NNW 8.1 mph - N/A   Mostly Cloudy
6:35 PM 55.4 °F - 42.8 °F 63% 30.15 in 10.0 mi NNW 5.8 mph - N/A   Overcast
6:55 PM 53.6 °F - 41.0 °F 62% 30.16 in 10.0 mi NNW 9.2 mph - N/A   Scattered Clouds
7:15 PM 53.6 °F - 41.0 °F 62% 30.16 in 10.0 mi NW 6.9 mph - N/A   Clear
7:35 PM 51.8 °F - 41.0 °F 67% 30.18 in 10.0 mi NNW 5.8 mph - N/A   Clear
7:55 PM 51.8 °F - 41.0 °F 67% 30.19 in 10.0 mi North 5.8 mph - N/A   Clear
8:15 PM 50.0 °F - 41.0 °F 71% 30.20 in 10.0 mi North 8.1 mph - N/A   Clear
8:35 PM 48.2 °F - 41.0 °F 76% 30.20 in 10.0 mi North 4.6 mph - N/A   Clear
8:55 PM 46.4 °F 43.5 °F 41.0 °F 81% 30.20 in 10.0 mi North 5.8 mph - N/A   Clear
9:15 PM 46.4 °F - 41.0 °F 81% 30.21 in 10.0 mi Calm Calm - N/A   Clear
9:35 PM 46.4 °F 45.2 °F 41.0 °F 81% 30.21 in 10.0 mi North 3.5 mph - N/A   Clear
9:55 PM 46.4 °F 43.5 °F 41.0 °F 81% 30.22 in 10.0 mi North 5.8 mph - N/A   Clear
10:15 PM 44.6 °F - 39.2 °F 81% 30.22 in 10.0 mi Calm Calm - N/A   Clear
10:35 PM 44.6 °F 43.1 °F 39.2 °F 81% 30.22 in 10.0 mi NNW 3.5 mph - N/A   Clear
10:55 PM 44.6 °F 43.1 °F 39.2 °F 81% 30.23 in 10.0 mi North 3.5 mph - N/A   Clear
11:15 PM 44.6 °F 43.1 °F 39.2 °F 81% 30.23 in 10.0 mi North 3.5 mph - N/A   Clear
11:35 PM 44.6 °F - 37.4 °F 76% 30.23 in 10.0 mi Calm Calm - N/A   Clear
11:55 PM 42.8 °F 41.1 °F 37.4 °F 81% 30.24 in 10.0 mi North 3.5 mph - N/A   Clear